When you browse on this site, cookies collect data to enhance your experience and personalize the content and advertising you see.
Visit our Privacy Policy to learn more. By continuing to use the site, you agree to this use of cookies and data.
  • In Romania
  • List of Countries
  • For 7 days
  • Water Temperature
  • Weather Map
  • Weather Widgets
  • user-avatar
    Login

    Hourly Weather Thimphu

    Today, 25 May, Monday

    Time Temperature Precipitation Wind Pressure Humidity
    00:00 +10°C° 0 mm 1 mps 524 mmHg 96%
    01:00 +10°C° 0.2 mm 1 mps 523 mmHg 96%
    02:00 +10°C° 0.2 mm 1 mps 523 mmHg 96%
    03:00 +10°C° 0.2 mm 1 mps 522 mmHg 95%
    04:00 +10°C° 0.1 mm 1 mps 523 mmHg 95%
    05:00 +10°C° 0.1 mm 1 mps 523 mmHg 95%
    06:00 +10°C° 0 mm 1 mps 524 mmHg 95%
    07:00 +12°C° 0.1 mm 1 mps 525 mmHg 88%
    08:00 +13°C° 0.1 mm 1 mps 526 mmHg 82%
    09:00 +15°C° 0.1 mm 1 mps 527 mmHg 76%
    10:00 +16°C° 0.4 mm 2 mps 527 mmHg 73%
    11:00 +16°C° 0.4 mm 2 mps 527 mmHg 71%
    12:00 +17°C° 0.4 mm 2 mps 527 mmHg 69%
    13:00 +17°C° 0.6 mm 2 mps 527 mmHg 70%
    14:00 +17°C° 0.6 mm 2 mps 526 mmHg 70%
    15:00 +16°C° 0.6 mm 2 mps 525 mmHg 70%
    16:00 +15°C° 0.4 mm 2 mps 525 mmHg 75%
    17:00 +14°C° 0.4 mm 2 mps 524 mmHg 80%
    18:00 +13°C° 0.4 mm 2 mps 524 mmHg 85%
    19:00 +12°C° 0.1 mm 2 mps 523 mmHg 88%
    20:00 +10°C° 0.1 mm 2 mps 523 mmHg 91%
    21:00 +10°C° 0.1 mm 1 mps 523 mmHg 94%
    22:00 +10°C° 0.3 mm 1 mps 523 mmHg 93%
    23:00 +10°C° 0.3 mm 1 mps 523 mmHg 93%

    Tomorrow, 26 May, Tuesday

    Time Temperature Precipitation Wind Pressure Humidity
    00:00 +10°C° 0.3 mm 1 mps 523 mmHg 92%
    01:00 +9°C° 0.1 mm 1 mps 523 mmHg 91%
    02:00 +9°C° 0.1 mm 1 mps 522 mmHg 90%
    03:00 +8°C° 0.1 mm 1 mps 522 mmHg 89%
    04:00 +8°C° 0 mm 1 mps 522 mmHg 88%
    05:00 +8°C° 0 mm 1 mps 522 mmHg 87%
    06:00 +9°C° 0 mm 1 mps 523 mmHg 86%
    07:00 +11°C° 0 mm 1 mps 524 mmHg 76%
    08:00 +14°C° 0 mm 1 mps 526 mmHg 67%
    09:00 +16°C° 0 mm 1 mps 528 mmHg 58%
    10:00 +16°C° 0.5 mm 2 mps 528 mmHg 60%
    11:00 +16°C° 0.5 mm 2 mps 527 mmHg 63%
    12:00 +16°C° 0.5 mm 3 mps 527 mmHg 65%
    13:00 +16°C° 0.9 mm 2 mps 527 mmHg 67%
    14:00 +16°C° 0.9 mm 2 mps 526 mmHg 68%
    15:00 +15°C° 0.9 mm 2 mps 525 mmHg 70%
    16:00 +14°C° 0.6 mm 2 mps 525 mmHg 73%
    17:00 +13°C° 0.6 mm 2 mps 524 mmHg 76%
    18:00 +12°C° 0.6 mm 1 mps 524 mmHg 80%
    19:00 +11°C° 0.2 mm 1 mps 524 mmHg 82%
    20:00 +10°C° 0.2 mm 1 mps 523 mmHg 83%
    21:00 +9°C° 0.2 mm 1 mps 523 mmHg 85%
    22:00 +8°C° 0 mm 1 mps 523 mmHg 84%
    23:00 +8°C° 0 mm 1 mps 523 mmHg 84%

    Day after tomorrow, 27 May, Wednesday

    Time Temperature Precipitation Wind Pressure Humidity
    00:00 +8°C° 0 mm 1 mps 522 mmHg 83%
    01:00 +8°C° 0.2 mm 1 mps 522 mmHg 84%
    02:00 +8°C° 0.2 mm 1 mps 522 mmHg 86%
    03:00 +8°C° 0.2 mm 1 mps 522 mmHg 88%
    04:00 +8°C° 0.3 mm 1 mps 522 mmHg 89%
    05:00 +8°C° 0.3 mm 1 mps 522 mmHg 90%
    06:00 +7°C° 0.3 mm 0 mps 523 mmHg 90%
    07:00 +10°C° 0 mm 1 mps 524 mmHg 82%
    08:00 +12°C° 0 mm 1 mps 525 mmHg 74%
    09:00 +14°C° 0 mm 1 mps 526 mmHg 66%
    10:00 +15°C° 0.7 mm 1 mps 527 mmHg 66%
    11:00 +16°C° 0.7 mm 2 mps 527 mmHg 66%
    12:00 +16°C° 0.7 mm 2 mps 527 mmHg 66%
    13:00 +16°C° 1.3 mm 2 mps 526 mmHg 69%
    14:00 +15°C° 1.3 mm 2 mps 525 mmHg 72%
    15:00 +15°C° 1.3 mm 2 mps 525 mmHg 75%
    16:00 +14°C° 0.9 mm 1 mps 524 mmHg 79%
    17:00 +13°C° 0.9 mm 1 mps 524 mmHg 83%
    18:00 +12°C° 0.9 mm 1 mps 523 mmHg 87%
    19:00 +11°C° 0.1 mm 1 mps 523 mmHg 88%
    20:00 +10°C° 0.1 mm 1 mps 523 mmHg 88%
    21:00 +9°C° 0.1 mm 1 mps 523 mmHg 89%
    22:00 +8°C° 0 mm 1 mps 523 mmHg 89%
    23:00 +8°C° 0 mm 1 mps 522 mmHg 89%

    28 May, Thursday

    Time Temperature Precipitation Wind Pressure Humidity
    00:00 +8°C° 0 mm 1 mps 522 mmHg 89%
    01:00 +8°C° 0 mm 1 mps 522 mmHg 88%
    02:00 +7°C° 0 mm 1 mps 521 mmHg 87%
    03:00 +7°C° 0 mm 1 mps 521 mmHg 86%
    04:00 +8°C° 0 mm 1 mps 521 mmHg 84%
    05:00 +8°C° 0 mm 1 mps 522 mmHg 82%
    06:00 +9°C° 0 mm 1 mps 522 mmHg 81%
    07:00 +11°C° 0 mm 1 mps 524 mmHg 75%
    08:00 +13°C° 0 mm 1 mps 525 mmHg 69%
    09:00 +15°C° 0 mm 1 mps 527 mmHg 63%
    10:00 +16°C° 0.3 mm 2 mps 527 mmHg 62%
    11:00 +17°C° 0.3 mm 2 mps 528 mmHg 60%
    12:00 +18°C° 0.3 mm 2 mps 528 mmHg 59%
    13:00 +17°C° 1 mm 2 mps 527 mmHg 66%
    14:00 +16°C° 1 mm 2 mps 526 mmHg 73%
    15:00 +15°C° 1 mm 2 mps 525 mmHg 80%
    16:00 +14°C° 0.8 mm 1 mps 525 mmHg 82%
    17:00 +13°C° 0.8 mm 1 mps 524 mmHg 84%
    18:00 +11°C° 0.8 mm 0 mps 524 mmHg 86%
    19:00 +10°C° 0.1 mm 0 mps 524 mmHg 86%
    20:00 +10°C° 0.1 mm 1 mps 524 mmHg 86%
    21:00 +9°C° 0.1 mm 1 mps 524 mmHg 86%
    22:00 +9°C° 0.1 mm 1 mps 524 mmHg 86%
    23:00 +8°C° 0.1 mm 1 mps 523 mmHg 85%

    29 May, Friday

    Time Temperature Precipitation Wind Pressure Humidity
    00:00 +8°C° 0.1 mm 1 mps 523 mmHg 85%
    01:00 +7°C° 0 mm 1 mps 523 mmHg 85%
    02:00 +7°C° 0 mm 1 mps 523 mmHg 84%
    03:00 +7°C° 0 mm 1 mps 522 mmHg 84%
    04:00 +7°C° 0 mm 1 mps 523 mmHg 84%
    05:00 +8°C° 0 mm 1 mps 523 mmHg 83%
    06:00 +8°C° 0 mm 1 mps 523 mmHg 83%
    07:00 +10°C° 0 mm 1 mps 525 mmHg 75%
    08:00 +13°C° 0 mm 1 mps 526 mmHg 67%
    09:00 +15°C° 0 mm 2 mps 528 mmHg 59%
    10:00 +15°C° 0.4 mm 2 mps 528 mmHg 64%
    11:00 +15°C° 0.4 mm 2 mps 527 mmHg 68%
    12:00 +14°C° 0.4 mm 2 mps 527 mmHg 72%
    13:00 +14°C° 0.7 mm 2 mps 526 mmHg 76%
    14:00 +14°C° 0.7 mm 2 mps 525 mmHg 79%
    15:00 +14°C° 0.7 mm 2 mps 524 mmHg 82%
    16:00 +13°C° 0.9 mm 2 mps 524 mmHg 85%
    17:00 +12°C° 0.9 mm 1 mps 524 mmHg 89%
    18:00 +12°C° 0.9 mm 1 mps 523 mmHg 92%
    19:00 +11°C° 0.4 mm 1 mps 524 mmHg 93%
    20:00 +9°C° 0.4 mm 0 mps 524 mmHg 94%
    21:00 +9°C° 0.4 mm 0 mps 524 mmHg 95%
    22:00 +8°C° 0.6 mm 0 mps 524 mmHg 95%
    23:00 +8°C° 0.6 mm 0 mps 524 mmHg 96%

    30 May, Saturday

    Time Temperature Precipitation Wind Pressure Humidity
    00:00 +8°C° 0.6 mm 0 mps 524 mmHg 96%
    01:00 +8°C° 0.1 mm 0 mps 524 mmHg 96%
    02:00 +8°C° 0.1 mm 0 mps 524 mmHg 95%
    03:00 +7°C° 0.1 mm 0 mps 524 mmHg 94%
    04:00 +8°C° 0.1 mm 0 mps 524 mmHg 93%
    05:00 +8°C° 0.1 mm 0 mps 524 mmHg 92%
    06:00 +8°C° 0.1 mm 0 mps 524 mmHg 90%
    07:00 +11°C° 0 mm 1 mps 526 mmHg 84%
    08:00 +13°C° 0 mm 1 mps 527 mmHg 78%
    09:00 +15°C° 0 mm 1 mps 528 mmHg 72%
    10:00 +15°C° 0.5 mm 2 mps 528 mmHg 72%
    11:00 +16°C° 0.5 mm 2 mps 528 mmHg 72%
    12:00 +16°C° 0.5 mm 2 mps 528 mmHg 72%
    13:00 +16°C° 1.1 mm 2 mps 527 mmHg 75%
    14:00 +16°C° 1.1 mm 2 mps 527 mmHg 78%
    15:00 +15°C° 1.1 mm 2 mps 526 mmHg 80%
    16:00 +14°C° 0.8 mm 2 mps 525 mmHg 84%
    17:00 +14°C° 0.8 mm 1 mps 525 mmHg 88%
    18:00 +13°C° 0.8 mm 1 mps 524 mmHg 91%
    19:00 +12°C° 0.3 mm 1 mps 524 mmHg 93%
    20:00 +11°C° 0.3 mm 1 mps 524 mmHg 96%
    21:00 +9°C° 0.3 mm 0 mps 524 mmHg 98%
    22:00 +9°C° 0.5 mm 0 mps 525 mmHg 98%
    23:00 +9°C° 0.5 mm 0 mps 525 mmHg 97%
    Show more